Location: M?digepalle
(16.1753°N, 80.3496°E)
Time: 08:42:43
(UTC+00:00)

Cosmos 2360 - Pass Details

Date: 29 October 2020
Orbit: 848 x 855 km, 70.8° (Epoch: 27 November)

Event Time Altitude Azimuth Distance (km) Brightness Sun altitude
Rises 12:37:29 0° 199° (SSW) 3,411 7.8 -7.3°
Reaches altitude 10° 12:39:56 10° 200° (SSW) 2,476 7.1 -7.9°
Maximum altitude 12:45:38 78° 287° (WNW) 872 4.4 -9.3°
Drops below altitude 10° 12:51:20 10° 13° (NNE) 2,479 6.4 -10.6°
Sets 12:53:47 0° 15° (NNE) 3,415 7.1 -11.2°
